Location: Davidschlag
(48.4333°N, 14.2833°E)
Time: 03:28:57
(UTC+00:00)

STARLINK-42 - Pass Details

Date: 27 February 2020
Orbit: 393 x 397 km, 53.0° (Epoch: 09 April)

Event Time Altitude Azimuth Distance (km) Brightness Sun altitude
Rises 17:57:59 0° 288° (WNW) 2,314 8.4 -13.2°
Reaches altitude 10° 18:00:09 10° 297° (WNW) 1,455 6.9 -13.6°
Maximum altitude 18:03:13 37° 7° (N) 643 3.9 -14.1°
Enters shadow 18:04:34 25° 57° (ENE) 861 4.2 -14.3°
